Regional Weather Roundup
Issued by NWS Newport/Morehead, NC

Current Version | Previous Version | Text Only | Print | Product List | Glossary On
Versions: 1 2 3 4 5 6 7 8 9 10 11 12 13 14 15 16 17 18 19 20 21 22 23 24 25 26 27 28 29 30 31 32 33 34 35 36 37 38 39 40 41 42 43 44 45 46 47 48 49 50
000
ASUS42 KMHX 050012
RWRMHX
WEATHER ROUNDUP FOR EASTERN NORTH CAROLINA
NATIONAL WEATHER SERVICE NEWPORT/MOREHEAD CITY NC
800 PM EDT MON MAY 04 2015

NOTE: "FAIR" INDICATES FEW OR NO CLOUDS BELOW 12,000 FEET
WITH NO SIGNIFICANT WEATHER AND/OR OBSTRUCTIONS TO VISIBILITY

NCZ015>017-031-032-045>047-102-103-050100-
NORTH COAST

CITY           SKY/WX    TMP DP  RH WIND       PRES   REMARKS
EDENTON        CLEAR     72  55  54 S10       30.27S
ELIZABETH CITY CLEAR     71  51  49 S10       30.27R
KITTY HAWK     CLEAR     69  54  57 S6        30.29R
MANTEO         CLEAR     67  58  71 S10       30.30S

$$

NCZ045>047-081-094-103-104-050100-
CENTRAL COAST

CITY           SKY/WX    TMP DP  RH WIND       PRES   REMARKS
FRISCO         CLEAR     65  59  81 SW6       30.32S
SWANQUARTER      N/A     70 N/A N/A S10G16    30.27S

$$

NCZ095-097-098-100-101-050100-
SOUTHERN COAST

CITY           SKY/WX    TMP DP  RH WIND       PRES   REMARKS
BEAUFORT       CLEAR     68  57  68 S6        30.32R
CEDAR ISLAND     N/A     70 N/A N/A S5        30.36S
JACKSONVILLE   CLEAR     69  53  56 S6        30.31R
PINEY ISLAND   CLEAR    N/A N/A N/A S5        30.31S
WILMINGTON     CLEAR     70  50  49 S8        30.31S


$$

NCZ011>013-027>030-043-044-078>080-089-090>093-098-050100-
COASTAL PLAIN

CITY           SKY/WX    TMP DP  RH WIND       PRES   REMARKS
AHOSKIE        CLEAR     71  50  47 CALM      30.26R
CLINTON        CLEAR     72  56  57 S5        30.29R
ELIZABETHTOWN  CLEAR     72  55  55 S7        30.29R
GOLDSBORO      CLEAR     73  55  52 S9        30.26R
GREENVILLE     CLEAR     73  54  49 S10       30.29R
HAVELOCK       CLEAR     69  54  58 S6        30.32S
KENANSVILLE    CLEAR     71  52  50 SE5       30.31R
KINSTON        CLEAR     72  54  53 S10       30.30R
NEW BERN       CLEAR     71  49  45 S8        30.32R
RICHLANDS      CLEAR     70  48  46 S7        30.31S
ROCKY MOUNT    CLEAR     74  51  44 S5        30.26R
WASHINGTON     CLEAR     72  54  53 S7        30.29R
WHITEVILLE     CLEAR     71  55  58 S5        30.30R

$$

AMZ130-135-150-152-154-156-158-170-250-252-270-ANZ085-086-088-633-658-670-050100-
MARINE OBSERVATIONS

STATION/POSITION TIME  TEMP    WIND        PRES    WAVE   SWELL
                       AIR SEA DIR/SP/G            HT/PER HT/PER
                 (UTC) (F)     (DEG/KT/KT) (MB)    (FT/S) (FT/S)
CHESAPEAKE LIGHT 0000   61     180/ 26/ 27 1024.4
64 E VA BEACH    2350   65 62  180/ 12/ 14 1025.3    3/10   3/10
DUCK             2300   74 56  180/ 13/ 17 1024.1
2 E DUCK         2311      59                N/A     3/12   2/12
OREGON INLET     2300   69 70  180/ 11/ 13 1026.2
13E OREGON INLT  0000      59                N/A     2/10   2/11
HATTERAS CG      2300   71 67  210/  6/  9 1026.1
DIAMOND BUOY     2350   74 78  210/ 10/ 14 1026.8    4/12   3/12
CAPE LOOKOUT     0000   69     170/  8/  8 1026.5
BEAUFORT LAB     2300   70 67  180/  6/  6 1025.6
27 SE WRIGHTSVLE 2300   71 73  160/ 10/ 10   N/A
5 SE WRIGHTSVLE  2308   70 69  180/  6/  6 1026.5
225 S CAPE HAT   2350   69 70   90/ 14/ 17 1026.8    5/12   3/12
41 SE CHARLESTON 2350   73 74  100/ 16/ 17 1025.1    3/11   2/11

$$



USA.gov is the U.S. government's official web portal to all federal, state and local government web resources and services.